Powrót do katalogu

STARLINK-5843

AktywnyŁącznośćVLEO
NORAD 57072·PAYLOAD·🇺🇸 United States

Wystrzelony Jun 22, 2023 z Vandenberg Space Force Base

Loading…

Następne Przeloty (najbliższe 24 godziny)

TLE

ŚwieżeSource: CelesTrak SupGP

Epoka: Sep 14, 2026, 20:56 UTC

1 57072C 23088AA  26257.87270833 -.00001577  00000+0 -57145-4 0  2576
2 57072  43.0012 107.8970 0001001 259.6504  18.8182 15.27571080    13

Śledź STARLINK-5843 w czasie rzeczywistym z AllMySat

Download on the App Store